User: anonymous   Login
Location: Champignolles
(47.0543°N, 4.5663°E)
Time: 06:09:01
(UTC+00:00)
Language:

NOAA 6 - Orbit

View from above orbital plane
View from above orbital plane
View from above satellite
View from above satellite

Ground track
Ground track

The orbit data is extracted from the following two-line orbital elements,

1 11416U 79057A   21055.75400540  .00000049  00000-0  33946-4 0  9991
2 11416  98.6659  60.8284 0009551 223.6407 136.4022 14.33619435173075
Epoch (UTC): 24 February 2021 18:05:46
Eccentricity: 0.0009551
inclination: 98.6659°
perigee height: 773 km
apogee height: 786 km
right ascension of ascending node: 60.8284°
argument of perigee: 223.6407°
revolutions per day: 14.33619435
mean anomaly at epoch: 136.4022°
orbit number at epoch: 17307

The dashed part of the orbit path shows where the satellite is in the earth's shadow,  

DLR